This is the latest recevied weather packets stored in our database for station/object KB0BS-13. If no packets are shown the sender has not sent any weather packets the latest 10 day(s).
| Time | Temp. | Humidity | Pressure | Rain* | Wind** | Luminosity | Snow |
|---|---|---|---|---|---|---|---|
| 1777394339 | 8.33° C | 99% | 1005.4 hPa | 0 mm | - | 207 W/m² | - |
| 1777394035 | 8.89° C | 99% | 1005 hPa | 0 mm | - | 180 W/m² | - |
| 1777393730 | 8.33° C | 99% | 1005.3 hPa | 0 mm | - | 204 W/m² | - |
| 1777393425 | 8.33° C | 99% | 1005.2 hPa | 1.78 mm | - | 137 W/m² | - |
| 1777393122 | 8.89° C | 99% | 1004.9 hPa | 1.78 mm | - | 181 W/m² | - |
| 1777392818 | 8.33° C | 99% | 1004.9 hPa | 0 mm | - | 210 W/m² | - |
| 1777392514 | 8.33° C | 99% | 1005 hPa | 0 mm | - | 206 W/m² | - |
| 1777392210 | 8.33° C | 99% | 1005.1 hPa | 0 mm | - | 125 W/m² | - |
| 1777391905 | 8.89° C | 99% | 1004.8 hPa | 0 mm | - | 128 W/m² | - |
| 1777391600 | 8.89° C | 99% | 1004.7 hPa | 0 mm | - | 93 W/m² | - |
| 1777391297 | 8.89° C | 99% | 1004.6 hPa | 1.27 mm | - | 89 W/m² | - |
| 1777390994 | 8.89° C | 99% | 1004.3 hPa | 1.27 mm | - | 101 W/m² | - |
| 1777390689 | 8.89° C | 99% | 1004.3 hPa | 1.78 mm | - | 87 W/m² | - |
| 1777390387 | 8.89° C | 99% | 1004.3 hPa | 0 mm | - | 102 W/m² | - |
| 1777390082 | 8.89° C | 99% | 1004.3 hPa | 0 mm | - | 102 W/m² | - |
| 1777389779 | 8.89° C | 99% | 1004.1 hPa | 0 mm | - | 113 W/m² | - |
| 1777389475 | 8.89° C | 99% | 1004.2 hPa | 1.78 mm | - | 101 W/m² | - |
| 1777389173 | 8.33° C | 99% | 1003.6 hPa | 0 mm | - | 102 W/m² | - |
| 1777388871 | 8.33° C | 99% | 1003.6 hPa | 0 mm | - | 102 W/m² | - |
| 1777388567 | 8.33° C | 99% | 1003.5 hPa | 0 mm | - | 109 W/m² | - |
| 1777388263 | 7.78° C | 99% | 1003.6 hPa | 0 mm | - | 74 W/m² | - |
| 1777387958 | 7.78° C | 99% | 1003.4 hPa | 0 mm | - | 66 W/m² | - |
| 1777387655 | 7.78° C | 99% | 1003.5 hPa | 0 mm | - | 55 W/m² | - |
| 1777387352 | 7.78° C | 99% | 1003.2 hPa | 0 mm | - | 50 W/m² | - |
| 1777387052 | 7.78° C | 99% | 1003 hPa | 0 mm | - | 36 W/m² | - |
* Rain latest hour (hover to see other rain measurements)
** Current wind speed in m/s (hover to see current wind gust speed)